Year,Month,Day,Hour,Minute,Value (Times are PST for temperature in C)
2012,08,10,00,00,16.30
2012,08,10,00,01,16.20
2012,08,10,00,02,16.20
2012,08,10,00,03,16.20
2012,08,10,00,04,16.10
2012,08,10,00,05,16.10
2012,08,10,00,06,16.10
2012,08,10,00,07,16.00
2012,08,10,00,08,16.00
2012,08,10,00,09,15.90
2012,08,10,00,10,15.90
2012,08,10,00,11,15.90
2012,08,10,00,12,15.90
2012,08,10,00,13,15.90
2012,08,10,00,14,15.80
2012,08,10,00,15,15.80
2012,08,10,00,16,15.80
2012,08,10,00,17,15.80
2012,08,10,00,18,15.90
2012,08,10,00,19,15.90
2012,08,10,00,20,15.90
2012,08,10,00,21,15.90
2012,08,10,00,22,15.90
2012,08,10,00,23,15.90
2012,08,10,00,24,15.90
2012,08,10,00,25,15.90
2012,08,10,00,26,15.90
2012,08,10,00,27,15.90
2012,08,10,00,28,16.00
2012,08,10,00,29,15.90
2012,08,10,00,30,15.90
2012,08,10,00,31,15.90
2012,08,10,00,32,15.90
2012,08,10,00,33,15.90
2012,08,10,00,34,15.90
2012,08,10,00,35,15.90
2012,08,10,00,36,15.90
2012,08,10,00,37,15.90
2012,08,10,00,38,15.90
2012,08,10,00,39,15.90
2012,08,10,00,40,15.80
2012,08,10,00,41,15.80
2012,08,10,00,42,15.80
2012,08,10,00,43,15.80
2012,08,10,00,44,15.80
2012,08,10,00,45,15.80
2012,08,10,00,46,15.80
2012,08,10,00,47,15.80
2012,08,10,00,48,15.80
2012,08,10,00,49,15.80
2012,08,10,00,50,15.80
2012,08,10,00,51,15.80
2012,08,10,00,52,15.80
2012,08,10,00,53,15.80
2012,08,10,00,54,15.80
2012,08,10,00,55,15.80
2012,08,10,00,56,15.80
2012,08,10,00,57,15.80
2012,08,10,00,58,15.80
2012,08,10,00,59,15.80
2012,08,10,01,00,15.80
2012,08,10,01,01,15.80
2012,08,10,01,02,15.80
2012,08,10,01,03,15.80
2012,08,10,01,04,15.80
2012,08,10,01,05,15.80
2012,08,10,01,06,15.80
2012,08,10,01,07,15.80
2012,08,10,01,08,15.80
2012,08,10,01,09,15.70
2012,08,10,01,10,15.70
2012,08,10,01,11,15.70
2012,08,10,01,12,15.70
2012,08,10,01,13,15.70
2012,08,10,01,14,15.70
2012,08,10,01,15,15.70
2012,08,10,01,16,15.70
2012,08,10,01,17,15.60
2012,08,10,01,18,15.60
2012,08,10,01,19,15.60
2012,08,10,01,20,15.60
2012,08,10,01,21,15.60
2012,08,10,01,22,15.50
2012,08,10,01,23,15.50
2012,08,10,01,24,15.50
2012,08,10,01,25,15.40
2012,08,10,01,26,15.40
2012,08,10,01,27,15.30
2012,08,10,01,28,15.30
2012,08,10,01,29,15.20
2012,08,10,01,30,15.20
2012,08,10,01,31,15.10
2012,08,10,01,32,15.10
2012,08,10,01,33,15.00
2012,08,10,01,34,15.00
2012,08,10,01,35,14.90
2012,08,10,01,36,14.90
2012,08,10,01,37,14.80
2012,08,10,01,38,14.80
2012,08,10,01,39,14.80
2012,08,10,01,40,14.70
2012,08,10,01,41,14.70
2012,08,10,01,42,14.70
2012,08,10,01,43,14.70
2012,08,10,01,44,14.60
2012,08,10,01,45,14.60
2012,08,10,01,46,14.60
2012,08,10,01,47,14.60
2012,08,10,01,48,14.60
2012,08,10,01,49,14.60
2012,08,10,01,50,14.60
2012,08,10,01,51,14.60
2012,08,10,01,52,14.70
2012,08,10,01,53,14.70
2012,08,10,01,54,14.70
2012,08,10,01,55,14.70
2012,08,10,01,56,14.70
2012,08,10,01,57,14.70
2012,08,10,01,58,14.60
2012,08,10,01,59,14.60
2012,08,10,02,00,14.60
2012,08,10,02,01,14.60
2012,08,10,02,02,14.60
2012,08,10,02,03,14.60
2012,08,10,02,04,14.60
2012,08,10,02,05,14.60
2012,08,10,02,06,14.60
2012,08,10,02,07,14.50
2012,08,10,02,08,14.50
2012,08,10,02,09,14.50
2012,08,10,02,10,14.50
2012,08,10,02,11,14.50
2012,08,10,02,12,14.40
2012,08,10,02,13,14.40
2012,08,10,02,14,14.40
2012,08,10,02,15,14.40
2012,08,10,02,16,14.40
2012,08,10,02,17,14.30
2012,08,10,02,18,14.30
2012,08,10,02,19,14.30
2012,08,10,02,20,14.30
2012,08,10,02,21,14.20
2012,08,10,02,22,14.20
2012,08,10,02,23,14.20
2012,08,10,02,24,14.20
2012,08,10,02,25,14.20
2012,08,10,02,26,14.20
2012,08,10,02,27,14.20
2012,08,10,02,28,14.20
2012,08,10,02,29,14.10
2012,08,10,02,30,14.10
2012,08,10,02,31,14.10
2012,08,10,02,32,14.10
2012,08,10,02,33,14.10
2012,08,10,02,34,14.10
2012,08,10,02,35,14.10
2012,08,10,02,36,14.00
2012,08,10,02,37,14.00
2012,08,10,02,38,14.00
2012,08,10,02,39,14.00
2012,08,10,02,40,14.00
2012,08,10,02,41,13.90
2012,08,10,02,42,13.90
2012,08,10,02,43,13.90
2012,08,10,02,44,13.90
2012,08,10,02,45,13.90
2012,08,10,02,46,13.90
2012,08,10,02,47,13.90
2012,08,10,02,48,13.90
2012,08,10,02,49,13.90
2012,08,10,02,50,13.90
2012,08,10,02,51,13.90
2012,08,10,02,52,13.90
2012,08,10,02,53,13.90
2012,08,10,02,54,13.90
2012,08,10,02,55,13.90
2012,08,10,02,56,13.90
2012,08,10,02,57,13.80
2012,08,10,02,58,13.80
2012,08,10,02,59,13.80
2012,08,10,03,00,13.80
2012,08,10,03,01,13.80
2012,08,10,03,02,13.80
2012,08,10,03,03,13.80
2012,08,10,03,04,13.80
2012,08,10,03,05,13.80
2012,08,10,03,06,13.80
2012,08,10,03,07,13.80
2012,08,10,03,08,13.80
2012,08,10,03,09,13.70
2012,08,10,03,10,13.70
2012,08,10,03,11,13.70
2012,08,10,03,12,13.70
2012,08,10,03,13,13.70
2012,08,10,03,14,13.70
2012,08,10,03,15,13.70
2012,08,10,03,16,13.70
2012,08,10,03,17,13.70
2012,08,10,03,18,13.60
2012,08,10,03,19,13.60
2012,08,10,03,20,13.60
2012,08,10,03,21,13.60
2012,08,10,03,22,13.60
2012,08,10,03,23,13.60
2012,08,10,03,24,13.60
2012,08,10,03,25,13.60
2012,08,10,03,26,13.60
2012,08,10,03,27,13.60
2012,08,10,03,28,13.60
2012,08,10,03,29,13.60
2012,08,10,03,30,13.60
2012,08,10,03,31,13.60
2012,08,10,03,32,13.50
2012,08,10,03,33,13.50
2012,08,10,03,34,13.50
2012,08,10,03,35,13.50
2012,08,10,03,36,13.50
2012,08,10,03,37,13.50
2012,08,10,03,38,13.50
2012,08,10,03,39,13.50
2012,08,10,03,40,13.50
2012,08,10,03,41,13.50
2012,08,10,03,42,13.50
2012,08,10,03,43,13.50
2012,08,10,03,44,13.50
2012,08,10,03,45,13.50
2012,08,10,03,46,13.50
2012,08,10,03,47,13.50
2012,08,10,03,48,13.40
2012,08,10,03,49,13.40
2012,08,10,03,50,13.40
2012,08,10,03,51,13.40
2012,08,10,03,52,13.40
2012,08,10,03,53,13.40
2012,08,10,03,54,13.40
2012,08,10,03,55,13.40
2012,08,10,03,56,13.40
2012,08,10,03,57,13.40
2012,08,10,03,58,13.40
2012,08,10,03,59,13.40
2012,08,10,04,00,13.40
2012,08,10,04,01,13.40
2012,08,10,04,02,13.40
2012,08,10,04,03,13.30
2012,08,10,04,04,13.30
2012,08,10,04,05,13.30
2012,08,10,04,06,13.30
2012,08,10,04,07,13.30
2012,08,10,04,08,13.30
2012,08,10,04,09,13.30
2012,08,10,04,10,13.30
2012,08,10,04,11,13.30
2012,08,10,04,12,13.30
2012,08,10,04,13,13.20
2012,08,10,04,14,13.20
2012,08,10,04,15,13.20
2012,08,10,04,16,13.20
2012,08,10,04,17,13.20
2012,08,10,04,18,13.20
2012,08,10,04,19,13.20
2012,08,10,04,20,13.20
2012,08,10,04,21,13.10
2012,08,10,04,22,13.10
2012,08,10,04,23,13.10
2012,08,10,04,24,13.10
2012,08,10,04,25,13.10
2012,08,10,04,26,13.10
2012,08,10,04,27,13.10
2012,08,10,04,28,13.10
2012,08,10,04,29,13.10
2012,08,10,04,30,13.10
2012,08,10,04,31,13.10
2012,08,10,04,32,13.10
2012,08,10,04,33,13.10
2012,08,10,04,34,13.10
2012,08,10,04,35,13.10
2012,08,10,04,36,13.10
2012,08,10,04,37,13.10
2012,08,10,04,38,13.10
2012,08,10,04,39,13.10
2012,08,10,04,40,13.00
2012,08,10,04,41,13.00
2012,08,10,04,42,13.00
2012,08,10,04,43,13.00
2012,08,10,04,44,13.00
2012,08,10,04,45,12.90
2012,08,10,04,46,12.90
2012,08,10,04,47,12.90
2012,08,10,04,48,12.90
2012,08,10,04,49,12.90
2012,08,10,04,50,12.90
2012,08,10,04,51,12.90
2012,08,10,04,52,12.90
2012,08,10,04,53,12.90
2012,08,10,04,54,12.80
2012,08,10,04,55,12.80
2012,08,10,04,56,12.80
2012,08,10,04,57,12.80
2012,08,10,04,58,12.80
2012,08,10,04,59,12.80
2012,08,10,05,00,12.80
2012,08,10,05,01,12.80
2012,08,10,05,02,12.80
2012,08,10,05,03,12.80
2012,08,10,05,04,12.70
2012,08,10,05,05,12.70
2012,08,10,05,06,12.70
2012,08,10,05,07,12.70
2012,08,10,05,08,12.70
2012,08,10,05,09,12.70
2012,08,10,05,10,12.70
2012,08,10,05,11,12.70
2012,08,10,05,12,12.70
2012,08,10,05,13,12.70
2012,08,10,05,14,12.70
2012,08,10,05,15,12.70
2012,08,10,05,16,12.70
2012,08,10,05,17,12.70
2012,08,10,05,18,12.70
2012,08,10,05,19,12.70
2012,08,10,05,20,12.60
2012,08,10,05,21,12.60
2012,08,10,05,22,12.60
2012,08,10,05,23,12.60
2012,08,10,05,24,12.60
2012,08,10,05,25,12.60
2012,08,10,05,26,12.60
2012,08,10,05,27,12.60
2012,08,10,05,28,12.60
2012,08,10,05,29,12.60
2012,08,10,05,30,12.60
2012,08,10,05,31,12.60
2012,08,10,05,32,12.60
2012,08,10,05,33,12.60
2012,08,10,05,34,12.60
2012,08,10,05,35,12.60
2012,08,10,05,36,12.60
2012,08,10,05,37,12.60
2012,08,10,05,38,12.60
2012,08,10,05,39,12.60
2012,08,10,05,40,12.60
2012,08,10,05,41,12.60
2012,08,10,05,42,12.60
2012,08,10,05,43,12.60
2012,08,10,05,44,12.60
2012,08,10,05,45,12.60
2012,08,10,05,46,12.50
2012,08,10,05,47,12.60
2012,08,10,05,48,12.60
2012,08,10,05,49,12.60
2012,08,10,05,50,12.60
2012,08,10,05,51,12.60
2012,08,10,05,52,12.60
2012,08,10,05,53,12.50
2012,08,10,05,54,12.50
2012,08,10,05,55,12.50
2012,08,10,05,56,12.50
2012,08,10,05,57,12.50
2012,08,10,05,58,12.40
2012,08,10,05,59,12.40
2012,08,10,06,00,12.40
2012,08,10,06,01,12.40
2012,08,10,06,02,12.40
2012,08,10,06,03,12.40
2012,08,10,06,04,12.40
2012,08,10,06,05,12.40
2012,08,10,06,06,12.40
2012,08,10,06,07,12.40
2012,08,10,06,08,12.40
2012,08,10,06,09,12.40
2012,08,10,06,10,12.40
2012,08,10,06,11,12.40
2012,08,10,06,12,12.30
2012,08,10,06,13,12.30
2012,08,10,06,14,12.30
2012,08,10,06,15,12.30
2012,08,10,06,16,12.30
2012,08,10,06,17,12.30
2012,08,10,06,18,12.30
2012,08,10,06,19,12.30
2012,08,10,06,20,12.30
2012,08,10,06,21,12.30
2012,08,10,06,22,12.30
2012,08,10,06,23,12.30
2012,08,10,06,24,12.30
2012,08,10,06,25,12.30
2012,08,10,06,26,12.30
2012,08,10,06,27,12.20
2012,08,10,06,28,12.20
2012,08,10,06,29,12.20
2012,08,10,06,30,12.20
2012,08,10,06,31,12.20
2012,08,10,06,32,12.20
2012,08,10,06,33,12.20
2012,08,10,06,34,12.30
2012,08,10,06,35,12.30
2012,08,10,06,36,12.30
2012,08,10,06,37,12.30
2012,08,10,06,38,12.30
2012,08,10,06,39,12.30
2012,08,10,06,40,12.30
2012,08,10,06,41,12.30
2012,08,10,06,42,12.30
2012,08,10,06,43,12.30
2012,08,10,06,44,12.30
2012,08,10,06,45,12.40
2012,08,10,06,46,12.40
2012,08,10,06,47,12.40
2012,08,10,06,48,12.40
2012,08,10,06,49,12.40
2012,08,10,06,50,12.40
2012,08,10,06,51,12.40
2012,08,10,06,52,12.40
2012,08,10,06,53,12.40
2012,08,10,06,54,12.40
2012,08,10,06,55,12.40
2012,08,10,06,56,12.50
2012,08,10,06,57,12.50
2012,08,10,06,58,12.50
2012,08,10,06,59,12.50
2012,08,10,07,00,12.50
2012,08,10,07,01,12.50
2012,08,10,07,02,12.50
2012,08,10,07,03,12.50
2012,08,10,07,04,12.60
2012,08,10,07,05,12.60
2012,08,10,07,06,12.60
2012,08,10,07,07,12.60
2012,08,10,07,08,12.60
2012,08,10,07,09,12.60
2012,08,10,07,10,12.60
2012,08,10,07,11,12.60
2012,08,10,07,12,12.60
2012,08,10,07,13,12.70
2012,08,10,07,14,12.70
2012,08,10,07,15,12.70
2012,08,10,07,16,12.70
2012,08,10,07,17,12.70
2012,08,10,07,18,12.80
2012,08,10,07,19,12.80
2012,08,10,07,20,12.80
2012,08,10,07,21,12.80
2012,08,10,07,22,12.80
2012,08,10,07,23,12.90
2012,08,10,07,24,12.90
2012,08,10,07,25,12.90
2012,08,10,07,26,12.90
2012,08,10,07,27,13.00
2012,08,10,07,28,13.00
2012,08,10,07,29,13.00
2012,08,10,07,30,13.10
2012,08,10,07,31,13.10
2012,08,10,07,32,13.10
2012,08,10,07,33,13.10
2012,08,10,07,34,13.20
2012,08,10,07,35,13.20
2012,08,10,07,36,13.30
2012,08,10,07,37,13.30
2012,08,10,07,38,13.30
2012,08,10,07,39,13.40
2012,08,10,07,40,13.40
2012,08,10,07,41,13.40
2012,08,10,07,42,13.50
2012,08,10,07,43,13.50
2012,08,10,07,44,13.60
2012,08,10,07,45,13.60
2012,08,10,07,46,13.60
2012,08,10,07,47,13.70
2012,08,10,07,48,13.70
2012,08,10,07,49,13.80
2012,08,10,07,50,13.80
2012,08,10,07,51,13.80
2012,08,10,07,52,13.90
2012,08,10,07,53,13.90
2012,08,10,07,54,14.00
2012,08,10,07,55,14.00
2012,08,10,07,56,14.10
2012,08,10,07,57,14.10
2012,08,10,07,58,14.20
2012,08,10,07,59,14.20
2012,08,10,08,00,14.30
2012,08,10,08,01,14.30
2012,08,10,08,02,14.40
2012,08,10,08,03,14.40
2012,08,10,08,04,14.40
2012,08,10,08,05,14.50
2012,08,10,08,06,14.60
2012,08,10,08,07,14.60
2012,08,10,08,08,14.70
2012,08,10,08,09,14.70
2012,08,10,08,10,14.80
2012,08,10,08,11,14.80
2012,08,10,08,12,14.80
2012,08,10,08,13,14.90
2012,08,10,08,14,15.00
2012,08,10,08,15,15.00
2012,08,10,08,16,15.10
2012,08,10,08,17,15.10
2012,08,10,08,18,15.20
2012,08,10,08,19,15.20
2012,08,10,08,20,15.30
2012,08,10,08,21,15.30
2012,08,10,08,22,15.40
2012,08,10,08,23,15.40
2012,08,10,08,24,15.40
2012,08,10,08,25,15.50
2012,08,10,08,26,15.50
2012,08,10,08,27,15.60
2012,08,10,08,28,15.60
2012,08,10,08,29,15.70
2012,08,10,08,30,15.70
2012,08,10,08,31,15.80
2012,08,10,08,32,15.80
2012,08,10,08,33,15.80
2012,08,10,08,34,15.90
2012,08,10,08,35,15.90
2012,08,10,08,36,16.00
2012,08,10,08,37,16.00
2012,08,10,08,38,16.10
2012,08,10,08,39,16.10
2012,08,10,08,40,16.20
2012,08,10,08,41,16.20
2012,08,10,08,42,16.20
2012,08,10,08,43,16.30
2012,08,10,08,44,16.30
2012,08,10,08,45,16.40
2012,08,10,08,46,16.40
2012,08,10,08,47,16.50
2012,08,10,08,48,16.60
2012,08,10,08,49,16.70
2012,08,10,08,50,16.80
2012,08,10,08,51,16.80
2012,08,10,08,52,16.90
2012,08,10,08,53,16.90
2012,08,10,08,54,17.00
2012,08,10,08,55,17.10
2012,08,10,08,56,17.10
2012,08,10,08,57,17.20
2012,08,10,08,58,17.20
2012,08,10,08,59,17.20
2012,08,10,09,00,17.30
2012,08,10,09,01,17.30
2012,08,10,09,02,17.40
2012,08,10,09,03,17.40
2012,08,10,09,04,17.40
2012,08,10,09,05,17.50
2012,08,10,09,06,17.60
2012,08,10,09,07,17.60
2012,08,10,09,08,17.70
2012,08,10,09,09,17.70
2012,08,10,09,10,17.70
2012,08,10,09,11,17.80
2012,08,10,09,12,17.80
2012,08,10,09,13,17.80
2012,08,10,09,14,17.80
2012,08,10,09,15,17.90
2012,08,10,09,16,17.90
2012,08,10,09,17,17.90
2012,08,10,09,18,17.90
2012,08,10,09,19,18.00
2012,08,10,09,20,18.00
2012,08,10,09,21,18.00
2012,08,10,09,22,18.10
2012,08,10,09,23,18.10
2012,08,10,09,24,18.10
2012,08,10,09,25,18.20
2012,08,10,09,26,18.30
2012,08,10,09,27,18.30
2012,08,10,09,28,18.40
2012,08,10,09,29,18.40
2012,08,10,09,30,18.50
2012,08,10,09,31,18.50
2012,08,10,09,32,18.60
2012,08,10,09,33,18.60
2012,08,10,09,34,18.60
2012,08,10,09,35,18.70
2012,08,10,09,36,18.70
2012,08,10,09,37,18.80
2012,08,10,09,38,18.80
2012,08,10,09,39,18.80
2012,08,10,09,40,18.80
2012,08,10,09,41,18.90
2012,08,10,09,42,18.90
2012,08,10,09,43,19.00
2012,08,10,09,44,19.00
2012,08,10,09,45,19.10
2012,08,10,09,46,19.10
2012,08,10,09,47,19.20
2012,08,10,09,48,19.20
2012,08,10,09,49,19.20
2012,08,10,09,50,19.20
2012,08,10,09,51,19.20
2012,08,10,09,52,19.20
2012,08,10,09,53,19.30
2012,08,10,09,54,19.30
2012,08,10,09,55,19.30
2012,08,10,09,56,19.40
2012,08,10,09,57,19.40
2012,08,10,09,58,19.50
2012,08,10,09,59,19.50
2012,08,10,10,00,19.60
2012,08,10,10,01,19.60
2012,08,10,10,02,19.60
2012,08,10,10,03,19.60
2012,08,10,10,04,19.70
2012,08,10,10,05,19.70
2012,08,10,10,06,19.70
2012,08,10,10,07,19.70
2012,08,10,10,08,19.80
2012,08,10,10,09,19.80
2012,08,10,10,10,19.80
2012,08,10,10,11,19.80
2012,08,10,10,12,19.80
2012,08,10,10,13,19.80
2012,08,10,10,14,19.80
2012,08,10,10,15,19.80
2012,08,10,10,16,19.80
2012,08,10,10,17,19.70
2012,08,10,10,18,19.70
2012,08,10,10,19,19.70
2012,08,10,10,20,19.60
2012,08,10,10,21,19.60
2012,08,10,10,22,19.60
2012,08,10,10,23,19.60
2012,08,10,10,24,19.60
2012,08,10,10,25,19.60
2012,08,10,10,26,19.60
2012,08,10,10,27,19.70
2012,08,10,10,28,19.70
2012,08,10,10,29,19.70
2012,08,10,10,30,19.70
2012,08,10,10,31,19.70
2012,08,10,10,32,19.70
2012,08,10,10,33,19.70
2012,08,10,10,34,19.70
2012,08,10,10,35,19.70
2012,08,10,10,36,19.60
2012,08,10,10,37,19.60
2012,08,10,10,38,19.60
2012,08,10,10,39,19.60
2012,08,10,10,40,19.60
2012,08,10,10,41,19.60
2012,08,10,10,42,19.60
2012,08,10,10,43,19.60
2012,08,10,10,44,19.60
2012,08,10,10,45,19.60
2012,08,10,10,46,19.60
2012,08,10,10,47,19.60
2012,08,10,10,48,19.70
2012,08,10,10,49,19.70
2012,08,10,10,50,19.80
2012,08,10,10,51,19.80
2012,08,10,10,52,19.90
2012,08,10,10,53,20.00
2012,08,10,10,54,20.00
2012,08,10,10,55,20.10
2012,08,10,10,56,20.20
2012,08,10,10,57,20.20
2012,08,10,10,58,20.20
2012,08,10,10,59,20.20
2012,08,10,11,00,20.20
2012,08,10,11,01,20.20
2012,08,10,11,02,20.20
2012,08,10,11,03,20.20
2012,08,10,11,04,20.30
2012,08,10,11,05,20.30
2012,08,10,11,06,20.30
2012,08,10,11,07,20.30
2012,08,10,11,08,20.30
2012,08,10,11,09,20.30
2012,08,10,11,10,20.30
2012,08,10,11,11,20.30
2012,08,10,11,12,20.30
2012,08,10,11,13,20.30
2012,08,10,11,14,20.40
2012,08,10,11,15,20.40
2012,08,10,11,16,20.50
2012,08,10,11,17,20.60
2012,08,10,11,18,20.60
2012,08,10,11,19,20.60
2012,08,10,11,20,20.60
2012,08,10,11,21,20.60
2012,08,10,11,22,20.60
2012,08,10,11,23,20.60
2012,08,10,11,24,20.60
2012,08,10,11,25,20.60
2012,08,10,11,26,20.60
2012,08,10,11,27,20.60
2012,08,10,11,28,20.60
2012,08,10,11,29,20.60
2012,08,10,11,30,20.60
2012,08,10,11,31,20.60
2012,08,10,11,32,20.70
2012,08,10,11,33,20.70
2012,08,10,11,34,20.80
2012,08,10,11,35,20.80
2012,08,10,11,36,20.90
2012,08,10,11,37,20.90
2012,08,10,11,38,21.00
2012,08,10,11,39,21.10
2012,08,10,11,40,21.10
2012,08,10,11,41,21.20
2012,08,10,11,42,21.20
2012,08,10,11,43,21.30
2012,08,10,11,44,21.40
2012,08,10,11,45,21.40
2012,08,10,11,46,21.50
2012,08,10,11,47,21.60
2012,08,10,11,48,21.70
2012,08,10,11,49,21.70
2012,08,10,11,50,21.70
2012,08,10,11,51,21.70
2012,08,10,11,52,21.80
2012,08,10,11,53,21.80
2012,08,10,11,54,21.80
2012,08,10,11,55,21.70
2012,08,10,11,56,21.70
2012,08,10,11,57,21.70
2012,08,10,11,58,21.70
2012,08,10,11,59,21.70
2012,08,10,12,00,21.70
2012,08,10,12,01,21.70
2012,08,10,12,02,21.60
2012,08,10,12,03,21.60
2012,08,10,12,04,21.50
2012,08,10,12,05,21.50
2012,08,10,12,06,21.40
2012,08,10,12,07,21.50
2012,08,10,12,08,21.50
2012,08,10,12,09,21.50
2012,08,10,12,10,21.50
2012,08,10,12,11,21.50
2012,08,10,12,12,21.60
2012,08,10,12,13,21.60
2012,08,10,12,14,21.70
2012,08,10,12,15,21.70
2012,08,10,12,16,21.60
2012,08,10,12,17,21.60
2012,08,10,12,18,21.60
2012,08,10,12,19,21.60
2012,08,10,12,20,21.60
2012,08,10,12,21,21.60
2012,08,10,12,22,21.60
2012,08,10,12,23,21.60
2012,08,10,12,24,21.60
2012,08,10,12,25,21.60
2012,08,10,12,26,21.60
2012,08,10,12,27,21.70
2012,08,10,12,28,21.70
2012,08,10,12,29,21.70
2012,08,10,12,30,21.70
2012,08,10,12,31,21.80
2012,08,10,12,32,21.80
2012,08,10,12,33,21.80
2012,08,10,12,34,21.90
2012,08,10,12,35,21.90
2012,08,10,12,36,21.90
2012,08,10,12,37,22.00
2012,08,10,12,38,22.00
2012,08,10,12,39,22.00
2012,08,10,12,40,22.00
2012,08,10,12,41,22.00
2012,08,10,12,42,22.00
2012,08,10,12,43,22.00
2012,08,10,12,44,22.00
2012,08,10,12,45,22.00
2012,08,10,12,46,22.10
2012,08,10,12,47,22.10
2012,08,10,12,48,22.10
2012,08,10,12,49,22.20
2012,08,10,12,50,22.20
2012,08,10,12,51,22.10
2012,08,10,12,52,22.10
2012,08,10,12,53,22.10
2012,08,10,12,54,22.10
2012,08,10,12,55,22.10
2012,08,10,12,56,22.10
2012,08,10,12,57,22.10
2012,08,10,12,58,22.20
2012,08,10,12,59,22.20
2012,08,10,13,00,22.30
2012,08,10,13,01,22.40
2012,08,10,13,02,22.40
2012,08,10,13,03,22.40
2012,08,10,13,04,22.50
2012,08,10,13,05,22.50
2012,08,10,13,06,22.50
2012,08,10,13,07,22.40
2012,08,10,13,08,22.40
2012,08,10,13,09,22.50
2012,08,10,13,10,22.50
2012,08,10,13,11,22.50
2012,08,10,13,12,22.50
2012,08,10,13,13,22.50
2012,08,10,13,14,22.60
2012,08,10,13,15,22.60
2012,08,10,13,16,22.60
2012,08,10,13,17,22.50
2012,08,10,13,18,22.40
2012,08,10,13,19,22.40
2012,08,10,13,20,22.40
2012,08,10,13,21,22.40
2012,08,10,13,22,22.40
2012,08,10,13,23,22.40
2012,08,10,13,24,22.50
2012,08,10,13,25,22.40
2012,08,10,13,26,22.50
2012,08,10,13,27,22.50
2012,08,10,13,28,22.50
2012,08,10,13,29,22.50
2012,08,10,13,30,22.50
2012,08,10,13,31,22.60
2012,08,10,13,32,22.60
2012,08,10,13,33,22.50
2012,08,10,13,34,22.50
2012,08,10,13,35,22.50
2012,08,10,13,36,22.50
2012,08,10,13,37,22.50
2012,08,10,13,38,22.50
2012,08,10,13,39,22.50
2012,08,10,13,40,22.60
2012,08,10,13,41,22.60
2012,08,10,13,42,22.60
2012,08,10,13,43,22.60
2012,08,10,13,44,22.60
2012,08,10,13,45,22.60
2012,08,10,13,46,22.60
2012,08,10,13,47,22.60
2012,08,10,13,48,22.60
2012,08,10,13,49,22.60
2012,08,10,13,50,22.60
2012,08,10,13,51,22.60
2012,08,10,13,52,22.60
2012,08,10,13,53,22.70
2012,08,10,13,54,22.70
2012,08,10,13,55,22.70
2012,08,10,13,56,22.70
2012,08,10,13,57,22.80
2012,08,10,13,58,22.80
2012,08,10,13,59,22.80
2012,08,10,14,00,22.80
2012,08,10,14,01,22.80
2012,08,10,14,02,22.80
2012,08,10,14,03,22.80
2012,08,10,14,04,22.80
2012,08,10,14,05,22.80
2012,08,10,14,06,22.80
2012,08,10,14,07,22.80
2012,08,10,14,08,22.80
2012,08,10,14,09,22.70
2012,08,10,14,10,22.70
2012,08,10,14,11,22.70
2012,08,10,14,12,22.70
2012,08,10,14,13,22.70
2012,08,10,14,14,22.70
2012,08,10,14,15,22.70
2012,08,10,14,16,22.60
2012,08,10,14,17,22.60
2012,08,10,14,18,22.60
2012,08,10,14,19,22.60
2012,08,10,14,20,22.50
2012,08,10,14,21,22.50
2012,08,10,14,22,22.50
2012,08,10,14,23,22.50
2012,08,10,14,24,22.50
2012,08,10,14,25,22.50
2012,08,10,14,26,22.50
2012,08,10,14,27,22.60
2012,08,10,14,28,22.60
2012,08,10,14,29,22.60
2012,08,10,14,30,22.60
2012,08,10,14,31,22.60
2012,08,10,14,32,22.60
2012,08,10,14,33,22.70
2012,08,10,14,34,22.70
2012,08,10,14,35,22.70
2012,08,10,14,36,22.70
2012,08,10,14,37,22.70
2012,08,10,14,38,22.60
2012,08,10,14,39,22.60
2012,08,10,14,40,22.60
2012,08,10,14,41,22.60
2012,08,10,14,42,22.60
2012,08,10,14,43,22.60
2012,08,10,14,44,22.70
2012,08,10,14,45,22.70
2012,08,10,14,46,22.70
2012,08,10,14,47,22.80
2012,08,10,14,48,22.80
2012,08,10,14,49,22.80
2012,08,10,14,50,22.80
2012,08,10,14,51,22.90
2012,08,10,14,52,22.90
2012,08,10,14,53,22.90
2012,08,10,14,54,22.80
2012,08,10,14,55,22.90
2012,08,10,14,56,22.90
2012,08,10,14,57,22.90
2012,08,10,14,58,22.90
2012,08,10,14,59,22.90
2012,08,10,15,00,22.90
2012,08,10,15,01,22.90
2012,08,10,15,02,22.90
2012,08,10,15,03,23.00
2012,08,10,15,04,23.00
2012,08,10,15,05,23.00
2012,08,10,15,06,23.00
2012,08,10,15,07,22.90
2012,08,10,15,08,22.90
2012,08,10,15,09,22.90
2012,08,10,15,10,22.90
2012,08,10,15,11,22.90
2012,08,10,15,12,23.00
2012,08,10,15,13,23.00
2012,08,10,15,14,23.00
2012,08,10,15,15,23.00
2012,08,10,15,16,23.10
2012,08,10,15,17,23.10
2012,08,10,15,18,23.20
2012,08,10,15,19,23.20
2012,08,10,15,20,23.20
2012,08,10,15,21,23.20
2012,08,10,15,22,23.20
2012,08,10,15,23,23.20
2012,08,10,15,24,23.10
2012,08,10,15,25,23.10
2012,08,10,15,26,23.10
2012,08,10,15,27,23.10
2012,08,10,15,28,23.10
2012,08,10,15,29,23.10
2012,08,10,15,30,23.10
2012,08,10,15,31,23.10
2012,08,10,15,32,23.00
2012,08,10,15,33,23.00
2012,08,10,15,34,23.00
2012,08,10,15,35,23.00
2012,08,10,15,36,23.10
2012,08,10,15,37,23.10
2012,08,10,15,38,23.10
2012,08,10,15,39,23.10
2012,08,10,15,40,23.10
2012,08,10,15,41,23.10
2012,08,10,15,42,23.10
2012,08,10,15,43,23.00
2012,08,10,15,44,23.00
2012,08,10,15,45,23.00
2012,08,10,15,46,23.00
2012,08,10,15,47,23.00
2012,08,10,15,48,22.90
2012,08,10,15,49,22.90
2012,08,10,15,50,22.90
2012,08,10,15,51,22.90
2012,08,10,15,52,22.90
2012,08,10,15,53,23.00
2012,08,10,15,54,23.00
2012,08,10,15,55,23.00
2012,08,10,15,56,22.90
2012,08,10,15,57,22.80
2012,08,10,15,58,22.80
2012,08,10,15,59,22.70
2012,08,10,16,00,22.70
2012,08,10,16,01,22.70
2012,08,10,16,02,22.70
2012,08,10,16,03,22.70
2012,08,10,16,04,22.70
2012,08,10,16,05,22.70
2012,08,10,16,06,22.70
2012,08,10,16,07,22.70
2012,08,10,16,08,22.70
2012,08,10,16,09,22.80
2012,08,10,16,10,22.80
2012,08,10,16,11,22.80
2012,08,10,16,12,22.80
2012,08,10,16,13,22.80
2012,08,10,16,14,22.80
2012,08,10,16,15,22.80
2012,08,10,16,16,22.80
2012,08,10,16,17,22.80
2012,08,10,16,18,22.80
2012,08,10,16,19,22.70
2012,08,10,16,20,22.70
2012,08,10,16,21,22.60
2012,08,10,16,22,22.60
2012,08,10,16,23,22.60
2012,08,10,16,24,22.60
2012,08,10,16,25,22.70
2012,08,10,16,26,22.70
2012,08,10,16,27,22.70
2012,08,10,16,28,22.70
2012,08,10,16,29,22.80
2012,08,10,16,30,22.80
2012,08,10,16,31,22.80
2012,08,10,16,32,22.80
2012,08,10,16,33,22.80
2012,08,10,16,34,22.80
2012,08,10,16,35,22.80
2012,08,10,16,36,22.80
2012,08,10,16,37,22.80
2012,08,10,16,38,22.80
2012,08,10,16,39,22.80
2012,08,10,16,40,22.80
2012,08,10,16,41,22.80
2012,08,10,16,42,22.80
2012,08,10,16,43,22.80
2012,08,10,16,44,22.80
2012,08,10,16,45,22.80
2012,08,10,16,46,22.80
2012,08,10,16,47,22.80
2012,08,10,16,48,22.80
2012,08,10,16,49,22.80
2012,08,10,16,50,22.80
2012,08,10,16,51,22.80
2012,08,10,16,52,22.70
2012,08,10,16,53,22.70
2012,08,10,16,54,22.70
2012,08,10,16,55,22.70
2012,08,10,16,56,22.70
2012,08,10,16,57,22.60
2012,08,10,16,58,22.60
2012,08,10,16,59,22.60
2012,08,10,17,00,22.60
2012,08,10,17,01,22.50
2012,08,10,17,02,22.60
2012,08,10,17,03,22.50
2012,08,10,17,04,22.50
2012,08,10,17,05,22.60
2012,08,10,17,06,22.60
2012,08,10,17,07,22.60
2012,08,10,17,08,22.60
2012,08,10,17,09,22.70
2012,08,10,17,10,22.70
2012,08,10,17,11,22.70
2012,08,10,17,12,22.70
2012,08,10,17,13,22.70
2012,08,10,17,14,22.70
2012,08,10,17,15,22.70
2012,08,10,17,16,22.70
2012,08,10,17,17,22.70
2012,08,10,17,18,22.70
2012,08,10,17,19,22.70